651 Weather Reports


time (UTC)temp
C
wind
direction
speed
KPH
gust
KPH
rain 1hr
cm
rain 24hr
cm
rain mn
cm
humidity
%
barometer
mb
20260507141602 20 0 0.0 11.3 0.00 0.00 0.00 62 1010.8
20260507140100 20 0 1.6 19.3 0.00 0.00 0.00 61 1010.9
20260507134559 20 0 0.0 11.3 0.00 0.00 0.00 60 1010.9
20260507133101 20 0 0.0 9.7 0.00 0.00 0.00 60 1011.1
20260507131622 20 53 0.0 14.5 0.00 0.00 0.00 60 1011.2
20260507130104 20 0 1.6 11.3 0.00 0.00 0.00 58 1011.2
20260507124601 21 0 0.0 20.9 0.00 0.00 0.00 55 1011.5
20260507123107 21 0 0.0 17.7 0.00 0.00 0.00 54 1011.5
20260507121609 21 0 0.0 14.5 0.00 0.00 0.00 53 1011.4
20260507120058 21 113 0.0 19.3 0.00 0.00 0.00 51 1011.2
20260507114602 21 0 4.8 22.5 0.00 0.00 0.00 51 1011.1
20260507113103 21 0 1.6 16.1 0.00 0.00 0.00 51 1011.2
20260507111601 21 111 1.6 16.1 0.00 0.00 0.00 49 1011.0
20260507110120 21 121 1.6 20.9 0.00 0.00 0.00 46 1011.1
20260507104559 21 42 1.6 22.5 0.00 0.00 0.00 45 1011.5
20260507103100 21 94 1.6 20.9 0.00 0.00 0.00 42 1011.5
20260507101602 21 202 6.4 29.0 0.00 0.00 0.00 40 1011.5
20260507100100 21 188 3.2 29.0 0.00 0.00 0.00 39 1011.6
20260507094619 21 131 3.2 24.1 0.00 0.00 0.00 39 1011.8
20260507093106 20 151 6.4 29.0 0.00 0.00 0.00 39 1011.8
20260507091641 20 78 9.7 27.4 0.00 0.00 0.00 39 1012.1
20260507090107 20 184 3.2 19.3 0.00 0.00 0.00 41 1012.1
20260507084559 20 97 1.6 16.1 0.00 0.00 0.00 42 1012.0
20260507083100 20 0 0.0 6.4 0.00 0.00 0.00 45 1012.3
20260507081606 20 0 0.0 6.4 0.00 0.00 0.00 47 1012.6
20260507080059 19 75 0.0 8.0 0.00 0.00 0.00 45 1012.5
20260507074600 19 96 1.6 16.1 0.00 0.00 0.00 41 1011.8
20260507073102 18 45 4.8 27.4 0.00 0.00 0.00 41 1011.5
20260507071602 18 167 3.2 35.4 0.00 0.00 0.00 41 1011.8
20260507070107 17 121 3.2 24.1 0.00 0.00 0.00 42 1012.1
20260507064601 17 0 4.8 19.3 0.00 0.00 0.00 43 1012.3
20260507063100 17 0 1.6 19.3 0.00 0.00 0.00 43 1012.6
20260507061601 17 0 1.6 16.1 0.00 0.00 0.00 43 1012.7
20260507060111 17 132 1.6 14.5 0.00 0.00 0.00 42 1012.8
20260507054601 16 182 3.2 20.9 0.00 0.00 0.00 45 1012.6
20260507053101 16 152 3.2 14.5 0.00 0.00 0.00 46 1012.5
20260507051603 15 144 3.2 20.9 0.00 0.00 0.00 46 1012.6
20260507050100 15 153 3.2 20.9 0.00 0.00 0.00 47 1012.3
20260507044602 15 186 3.2 20.9 0.00 0.00 0.00 46 1012.5
20260507043102 15 163 6.4 17.7 0.00 0.00 0.00 45 1012.5
20260507041601 15 98 3.2 16.1 0.00 0.00 0.00 44 1012.6
20260507040105 16 98 3.2 14.5 0.00 0.00 0.00 43 1012.8
20260507034605 16 93 3.2 25.7 0.00 0.00 0.00 42 1013.0
20260507033058 15 342 4.8 19.3 0.00 0.00 0.00 44 1012.7
20260507031600 15 206 1.6 25.7 0.00 0.00 0.00 48 1013.0
20260507030058 14 0 1.6 4.8 0.00 0.00 0.00 57 1013.2
20260507024604 13 0 0.0 8.0 0.00 0.00 0.00 64 1013.4
20260507023101 13 0 0.0 1.6 0.00 0.00 0.00 71 1013.4
20260507021602 14 0 0.0 1.6 0.00 0.00 0.00 72 1013.8
20260507020101 15 0 0.0 6.4 0.00 0.00 0.00 58 1013.9
20260507014601 15 0 0.0 6.4 0.00 0.00 0.00 55 1013.8
20260507013104 14 222 0.0 3.2 0.00 0.00 0.00 56 1013.4
20260507011601 13 0 0.0 0.0 0.00 0.00 0.00 62 1013.5
20260507010115 13 0 0.0 0.0 0.00 0.00 0.00 66 1013.8
20260507004601 13 0 0.0 3.2 0.00 0.00 0.00 69 1014.1
20260507003059 15 0 0.0 1.6 0.00 0.00 0.00 67 1014.1
20260507001603 15 0 0.0 3.2 0.00 0.00 0.00 55 1014.4
20260507000106 15 0 0.0 4.8 0.00 0.00 0.00 46 1014.5
20260506234618 15 126 0.0 4.8 0.00 0.00 0.00 49 1014.5
20260506233109 15 0 1.6 11.3 0.00 0.00 0.00 47 1014.4
20260506231602 15 0 1.6 11.3 0.00 0.00 0.00 48 1014.6
20260506230058 15 160 0.0 11.3 0.00 0.00 0.00 48 1015.0
20260506224558 16 0 1.6 11.3 0.00 0.00 0.00 47 1015.2
20260506223102 16 192 3.2 17.7 0.00 0.00 0.00 45 1015.1
20260506221612 16 131 4.8 17.7 0.00 0.00 0.00 43 1015.2
20260506220059 16 103 1.6 8.0 0.00 0.00 0.00 43 1015.2
20260506214609 17 113 1.6 8.0 0.00 0.00 0.00 46 1015.3
20260506213101 17 0 0.0 11.3 0.00 0.00 0.00 49 1015.4
20260506211601 17 0 0.0 4.8 0.00 0.00 0.00 51 1015.3
20260506204616 16 0 0.0 4.8 0.00 0.00 0.00 55 1015.1
20260506203102 17 0 0.0 14.5 0.00 0.00 0.00 54 1015.1
20260506201601 17 128 3.2 16.1 0.00 0.00 0.00 55 1014.9
20260506194601 17 126 1.6 14.5 0.00 0.00 0.00 57 1014.1
20260506193100 17 0 1.6 11.3 0.00 0.00 0.00 58 1014.7
20260506191559 17 318 4.8 25.7 0.00 0.00 0.00 61 1014.8
20260506190100 16 0 0.0 9.7 0.00 0.00 0.00 65 1013.9
20260506184600 17 0 0.0 14.5 0.00 0.00 0.00 67 1014.0
20260506183100 17 0 0.0 6.4 0.00 0.00 0.00 66 1013.9
20260506181559 17 0 0.0 1.6 0.00 0.00 0.00 63 1014.3
20260506180058 17 171 0.0 3.2 0.00 0.00 0.00 60 1014.6
20260506174608 17 160 0.0 8.0 0.00 0.00 0.00 59 1014.8
20260506173127 17 0 0.0 12.9 0.00 0.00 0.00 62 1014.7
20260506171601 17 0 0.0 8.0 0.00 0.00 0.00 61 1014.2
20260506170059 17 0 0.0 4.8 0.00 0.00 0.00 61 1014.4
20260506164602 17 0 0.0 1.6 0.00 0.00 0.00 61 1014.2
20260506163102 18 0 0.0 4.8 0.00 0.00 0.00 60 1014.5
20260506161611 18 0 0.0 3.2 0.00 0.00 0.00 55 1014.9
20260506160110 18 0 0.0 0.0 0.00 0.00 0.00 57 1015.4
20260506154603 18 0 0.0 0.0 0.00 0.00 0.00 54 1015.5
20260506153104 19 0 0.0 0.0 0.00 0.00 0.00 53 1015.6
20260506151601 19 0 0.0 0.0 0.00 0.00 0.00 54 1015.7
20260506150109 19 0 0.0 0.0 0.00 0.00 0.00 55 1015.8
20260506144612 19 0 0.0 0.0 0.00 0.00 0.00 56 1015.8
20260506143100 19 0 0.0 0.0 0.00 0.00 0.00 54 1015.7